Погода Балкашино

Погода Балкашино : погода сейчас, прогноз погоды и архив. Всё, что Вы хотите узнать о погоде Балкашино!

Поиск расширенной информации на нашем сайте:

Другие новости

Новости СМИ2

Главная страница сайта

Новости сайта

03.07.2017

Напоминаем, что на нашем специализированном сайте Метеоцентр.Азия вы можете получить высокодетализированные автоматические прогнозы погоды по пунктам России, СНГ и мира в авиационном формате (включающие направление и скорость ветра, видимость, явления погоды, количество и форму облачности, нижнюю и верхнюю границу облачности).


Погода Балкашино - сегодня

Время (UTC), дата Ветер
(°,м/с) 
Видим.   Явления Облачность Т
(°С)
Тd
(°С)
f(%) Тe
(°С)
Pmin
(гПа)
dP
(гПа)
Po
(мм)
O2
(г/м3)
Тmin Tmax R s Состояние
почвы
00 16.10.17 тихо ()   н/о    ясно 
-4.2 -4.7 96 -4  1018.5  0.4  726  298           
06 16.10.17 тихо ()   20000 м    6/0 верхняя 
[Ci sp]
+8.4 -1 52 +8  1017.3  0.1  727  284  -5.2         
09 16.10.17 210 (ЮЗ) 20000 м    10/0 верхняя 
[Cs]
+11.2 -3 37 +12  1016.6  -0.3  727  282           
12 16.10.17 тихо ()   20000 м    10/0 верхняя 
[Cs]
+9.7 -2.2 43 +10  1017.1  0.3  727  283           
15 16.10.17 120 (ЮВ) н/о    10/0 верхняя 
[Cs]
+4 -2.4 63 +5  1018.7  0.6  728  289    +11.4       
18 16.10.17 130 (ЮВ) н/о    10/0 верхняя 
[Cs]
+2.9 -1.8 71 +4  1018.8  -0.1  728  290    +11.4       
21 16.10.17 160 (Ю) н/о    8/0 верхняя 
[Ci sp]
+2.3 -1.9 74 +2  1018.3  -0.6  727  291           
00 17.10.17 160 (Ю) н/о    8/0 верхняя 
[Ci sp]
+3.1 -1.3 73 +4  1017.2  -0.9  727  290           
03 17.10.17 190 (Ю) 20000 м    8/0 средняя, верхняя 
[Ac lent|Ci sp]
+2.5 -1 78 +2  1016.6  -0.7  726  290           
06 17.10.17 130 (ЮВ) 20000 м    4/0 верхняя 
[Ci sp]
+10 +0.3 51 +9  1014.1  -1.1  725  282  +1.1         
09 17.10.17 090 (В) 20000 м    3/0 верхняя 
[Ci sp]
+13.6 +0.6 41 +13  1012.1  -1.3  724  278           
12 17.10.17 100 (В) 20000 м    4/0 средняя, верхняя 
[Ac lent|Ci sp]
+11.5 +1.2 49 +11  1011.3  -1.1  723  279           
15 17.10.17 120 (ЮВ) н/о    ясно 
+7.8 +2.4 69 +7  1011.2  -0.7  723  283    +13.6       
18 17.10.17 110 (В) н/о    3/0 верхняя 
[Ci fib]
+7.2 +2.8 74 +8  1008.9  -2.3  721  283    +13.6       
21 17.10.17 тихо ()   н/о    3/0 верхняя 
[Ci fib]
+3.9 +1.4 84 +4  1007.2  -2.2  719  286           
00 18.10.17 тихо ()   н/о    3/0 верхняя 
[Ci fib]
+3 +1.2 88 +3  1005.3  -1.9  718  286           
06 18.10.17 140 (ЮВ) 20000 м  {ливн. осадки}  10/0 средняя 
[Ac As]
+13 +6.2 63 +12  1000  -1.6  716  274  +1.8    0.3     
09 18.10.17 190 (Ю) 20000 м  в посл. час ливневой дождь  10/8 300 м кучево-дожд., средняя 
[Cb cap|Ac lent]
+9.2 +8 92 +8  1001.7  716  278           
21 18.10.17 150 (ЮВ) н/о    9/9 600 м 
[Sc]
+2.9 +1.6 91 +1  1004.4  -1.3  717  286           
00 19.10.17 110 (В) н/о    10/10 600 м 
[Sc]
+3.7 +2 89 +1  1002.7  -1.5  716  284           
06 19.10.17 060 (СВ) 20000 м  {ливн. осадки}  9/9 600 м 
[Sc]
+5.3 +1.4 76 +4  1002.2  0.6  716  283  +2.4    0.5     
09 19.10.17 040 (СВ) 20000 м    8/8 600 м 
[Sc]
+7.2 +2.5 72 +7  1003.2  1.3  717  281           
12 19.10.17 320 (СЗ) 20000 м    9/9 600 м 
[Sc]
+6.9 +1.6 69 +8  1006.1  2.7  719  282           
15 19.10.17 270 (З) н/о    4/4 600 м 
[Sc]
+4.3 +1 79 +4  1008.1  1.4  720  285    +7.3       
18 19.10.17 230 (ЮЗ) н/о    10/10 600 м 
[Sc]
+4.1 +3.1 93 +3  1008.3  0.2  720  285    +7.3       
Время (UTC), дата Ветер
(°,м/с) 
Видим.   Явления Облачность Т
(°С)
Тd
(°С)
f(%) Тe
(°С)
Pmin
(гПа)
dP
(гПа)
Po
(мм)
O2
(г/м3)
Тmin Tmax R s Состояние
почвы

Для получения пояснительной информации подведите курсор к названию столбца.

ПОГОДА Балкашино - архив

Всё, что Вы хотите узнать о погоде Балкашино - удобно и подробно!

Выберите нужную дату (начиная с 1 января 2015* года) и нажмите кнопку "Найти".
Будут отображены архивные сводки погоды по пункту Балкашино, начиная с указанной даты.


Отображать данные в формате CSV (для использования в таблицах Excel)


Внимание! Наш архив погоды предназначен исключительно для личного некоммерческого использования в познавательных целях. Если Вам необходимы официальные справки о состоянии погоды (для производственных, юридических, коммерческих и т.п. целей), обращайтесь в органы Росгидромета.

*Примечание: данная дата относится к архиву по метеостанциям СССР (Россия, СНГ, Балтия).
Архив по метеостанциям Зарубежной Европы и Азии (кроме Китая) хранится 10 дней, по другим регионам земного шара (Китай, Африка, Америка, Австралия, Океания) - 1 день.

Балкашино - район местоположения метеостанции


Название, широта, долгота, высота метеостанции:
Балкашино 52.5°ш. 68.8°д. 398 м над ур. моря [Казахстан]

Дополнительная информация

В oтличие oт бoльшинства пoгoдных сайтoв мы публикуем пoдрoбную метеoинфoрмацию в детальнoм прoфессиoнальнoм фoрмате.

Характеристики температуры и влажнoсти вoздуха измеряются на высoте 2 м в тени вдали oт зданий и деревьев.
Скoрoсть ветра измеряется на высoте 10 м (на урoвне рoста челoвека скoрoсть ветра ниже в 1.5-2 раза). Если метеoстанция нахoдится в гoрoде или в лесу, тo скoрoсть ветра занижена на 2-4 м/с пo сравнению с oткрытым местoм. Скoрoсть ветра над акватoриями крупных рек и oзёр, а также на вершинах хoлмoв на 2-5 м/с выше, чем в oбычных услoвиях.
Атмoсфернoе давление в разных тoчках местнoсти мoжет значительнo oтличаться oт давления на метеoстанции, в зависимoсти oт услoвий рельефа (при пoдъёме на 10 м давление пoнижается примернo на 1 мм рт.ст.).